Glencoe, MN

8:58 PM CST on December 08, 2019 (GMT -0600)
Glencoe Municipal

Weather History for KGYL - October, 2019

Change the Weather History Date:

Wednesday, October 2, 2019

  Actual Average (WUND) Record (WUND)
Temperature  
Mean Temperature 49 °F -  
Max Temperature 50 °F - - (-1)
Min Temperature 48 °F - - (-1)
Degree Days  
Heating Degree Days 16    
Moisture  
Dew Point 46 °F    
Average Humidity 93    
Maximum Humidity 100    
Minimum Humidity 82    
Precipitation  
Precipitation 0.29 in - - ()
Sea Level Pressure  
Sea Level Pressure 30.04 in    
Wind  
Wind Speed 7 mph (NNE)    
Max Wind Speed 10 mph    
Max Gust Speed 18 mph    
Visibility 8 miles    
Events Rain    
Averages and records for this station are not official NWS values.
T = Trace of Precipitation, MM = Missing Value Source: NWS Daily Summary

Daily Weather History Graph

Daily Weather History Graph

Search for Another Location

Airport or City:

Astronomy

Oct. 02, 2019 Rise Set
Actual Time 7:15 AM CDT 6:55 PM CDT
Civil Twilight 6:46 AM CDT 7:24 PM CDT
Nautical Twilight 6:12 AM CDT 7:58 PM CDT
Astronomical Twilight 5:37 AM CDT 8:32 PM CDT
Moon 11:51 AM CDT (10/2) 9:38 PM CDT (10/2)
Length of Visible Light 12h 38m
Length of Day
11h 40m
Waxing Crescent, 20% of the Moon is Illuminated
Oct 2
Waxing Crescent
Oct 5
First Quarter
Oct 13
Full
Oct 21
Last Quarter
Oct 27
New

Hourly Weather History & Observations

Time (CDT) Temp. Dew Point Humidity Pressure Visibility Wind Dir Wind Speed Gust Speed Precip Events Conditions
12:59 AM 50.0 °F 48.2 °F 94% 30.02 in 10.0 mi NNE 6.9 mph - N/A   Overcast
1:59 AM 50.0 °F 44.6 °F 82% 30.06 in 10.0 mi NNE 6.9 mph - N/A   Overcast
2:59 AM 48.2 °F 44.6 °F 87% 30.05 in 10.0 mi North 9.2 mph 17.3 mph N/A   Overcast
3:59 AM 48.2 °F 42.8 °F 82% 30.05 in 10.0 mi NNE 8.1 mph 17.3 mph N/A   Overcast
4:59 AM 48.2 °F 42.8 °F 82% 30.05 in 10.0 mi North 8.1 mph - N/A   Overcast
5:59 AM 48.2 °F 42.8 °F 82% 30.07 in 10.0 mi NNE 8.1 mph - N/A   Overcast
6:59 AM 48.2 °F 44.6 °F 87% 30.07 in 10.0 mi NNE 8.1 mph - N/A   Overcast
7:59 AM 48.2 °F 44.6 °F 87% 30.09 in 10.0 mi NNE 5.8 mph - N/A   Overcast
8:59 AM 48.2 °F 44.6 °F 87% 30.08 in 10.0 mi NE 5.8 mph - N/A   Overcast
9:59 AM 50.0 °F 46.4 °F 87% 30.06 in 10.0 mi NNE 8.1 mph - N/A   Overcast
10:59 AM 50.0 °F 46.4 °F 87% 30.07 in 10.0 mi NE 10.4 mph - N/A   Overcast
11:59 AM 50.0 °F 46.4 °F 87% 30.09 in 7.0 mi NE 5.8 mph - N/A   Overcast
12:59 PM 48.2 °F 48.2 °F 100% 30.09 in 5.0 mi North 9.2 mph - 0.10 in Rain Rain
1:59 PM 48.2 °F 48.2 °F 100% 30.05 in 10.0 mi NNE 8.1 mph - 0.03 in Rain Rain
2:59 PM 48.2 °F 48.2 °F 100% 30.04 in 7.0 mi NE 9.2 mph - 0.04 in Rain Rain
3:59 PM 48.2 °F 48.2 °F 100% 30.00 in 10.0 mi ENE 6.9 mph 18.4 mph 0.02 in Rain Rain
4:59 PM 48.2 °F 48.2 °F 100% 29.99 in 10.0 mi ENE 6.9 mph 17.3 mph 0.02 in   Light Drizzle
5:59 PM 48.2 °F 48.2 °F 100% 30.01 in 5.0 mi NE 3.5 mph - 0.01 in   Drizzle
6:59 PM 48.2 °F 48.2 °F 100% 30.00 in 4.0 mi ENE 8.1 mph - 0.01 in   Light Drizzle
7:59 PM 48.2 °F 48.2 °F 100% 29.99 in 3.0 mi ENE 5.8 mph - 0.01 in   Drizzle
8:59 PM 48.2 °F 48.2 °F 100% 30.00 in 3.0 mi ENE 3.5 mph - 0.01 in   Drizzle
9:59 PM 48.2 °F 48.2 °F 100% 30.01 in 4.0 mi Calm Calm - 0.03 in Rain Rain
11:59 PM 48.2 °F 48.2 °F 100% 29.99 in 2.5 mi North 3.5 mph - 0.01 in   Drizzle